Torna al catalogo

NUSANTARA SATU

AttivoComunicazioniGEO
NORAD 44048·PAYLOAD·🇮🇩 Indonesia

Lanciato Feb 22, 2019 da Cape Canaveral Space Force Station

Loading…

TLE

AggiornatoSource: Space-Track

Epoca: Sep 14, 2026, 21:20 UTC

1 44048U 19009A   26257.88915394 -.00000241  00000-0  00000-0 0  9996
2 44048   0.0232 142.9514 0004463   3.5218 313.5101  1.00272937 27667

Traccia NUSANTARA SATU in tempo reale con AllMySat

Download on the App Store